目前日期文章:201601 (130)

瀏覽方式: 標題列表 簡短摘要
發表時間 文章標題 人氣 留言
2016-01-31 MOMO購物網 【SEIKO】KINETIC 運動風尚人動電能腕錶(SKA619P1) (0) (0)
2016-01-31 天貓購物商城Storksak + Bugaboo 合作款 真皮媽媽包 (包含換尿片臺) - 41864125670 (0) (0)
2016-01-31 MOMO購物網 【迪士尼】開心米奇兒童錶 (0) (0)
2016-01-31 MOMO購物網 【ZIIIRO】MERCURY(BLACK-PURPLE) (0) (0)
2016-01-31 天貓購物商城親親我寬口徑奶嘴玻璃奶瓶PPSU嬰幼兒專用矽膠寶寶食品級奶嘴 - 19312038110 (0) (0)
2016-01-29 天貓購物商城奕居楠竹炕桌炕幾實木小桌子方桌茶幾榻榻米上地桌矮桌飄窗桌特價 - 44490081100 (0) (0)
2016-01-29 天貓購物商城意舍美式真皮沙發 油蠟皮沙發 美式沙發 美式複古 皮沙發 組合 - 18930309644 (0) (0)
2016-01-29 天貓購物商城Heilan Home-海瀾之家2016海瀾之家春季新品男士系帶橡膠底休閑鞋 - 524509982011 (0) (0)
2016-01-29 天貓購物商城惠達衛浴馬桶韓國原裝主機智能坐便蓋板一體智能坐便器 - 35747949535 (0) (0)
2016-01-29 天貓購物商城紳諾超輕夏季沃爾盧情侶款帆布鞋45大碼透氣老北京懶人布鞋無系帶 - 520306755459 (0) (0)
2016-01-28 天貓購物商城嬰兒電動搖椅搖籃床寶寶兒童躺椅安撫椅搖搖椅秋千搖床哄睡神器 - 44796414705 (1) (0)
2016-01-28 天貓購物商城運寶 bb煲電粥鍋 嬰兒煮粥鍋寶寶電飯煲電燉鍋盅熬輔食鍋 - 525436325980 (0) (0)
2016-01-28 天貓購物商城樂美達高景觀嬰兒推車可坐可躺雙向折疊三輪避震輕便嬰兒車手推車 - 17751871500 (0) (0)
2016-01-28 天貓購物商城親潤孕婦橄欖油孕紋套裝 預防修護淡化孕紋孕期媽媽的護膚化妝品 - 522555801116 (0) (0)
2016-01-28 天貓購物商城嬰兒床單 嬰兒床上用品 防水透氣 超大號床單純棉可洗嬰兒床床笠 - 37177151952 (0) (0)
2016-01-27 天貓購物商城齊齊熊 嬰兒衣服冬季棉襖兒童外出棉服嬰兒加厚保暖套裝寶寶棉衣 - 521759360281 (0) (0)
2016-01-27 天貓購物商城韓福汽車載充電器頭雙USB車充點煙器1224V通用蘋果三星手機一拖二 - 43238280745 (0) (0)
2016-01-27 天貓購物商城新款兒童扭扭車特價包郵音樂靜音輪搖擺車滑行車童車多功能溜溜車 - 42138707549 (1) (0)
2016-01-27 天貓購物商城火炬 菲亞特派朗菲翔躍派力奧西耶那周未風致悅觀致3銥鉑金火花塞 - 520379558561 (0) (0)
2016-01-27 天貓購物商城匯樂趣味小屋739智慧幼兒童音樂多功能遊戲桌益智力寶寶玩具1-3歲 - 24590472796 (0) (0)
2016-01-25 天貓購物商城上海大眾新老款波羅勁取poloCROSS途觀安朗行逸大全包圍汽車腳-- 40763210787 (0) (0)
2016-01-25 天貓購物商城EDDYSTAR矽膠強化全車管-套件 大眾寶來渦輪套件 - 44613733611 (0) (0)
2016-01-25 天貓購物商城博世四極鉑銥金FGR6DQI 大眾GTI帕薩特明銳昊銳途觀A4L邁騰火花塞 - 10615952135 (0) (0)
2016-01-25 天貓購物商城適用於大眾途觀高爾夫7淩渡朗行朗逸改裝裝飾專用門檻條迎賓踏板 - 40073429513 (0) (0)
2016-01-25 天貓購物商城曼斯特 AB4.85.10四路汽車功放 德國進口 德樂音響 天貓正品 - 17567910539 (0) (0)
2016-01-25 天貓購物商城達芙妮專櫃正品2015新款涼鞋蝴蝶結坡跟後扣帶舒適涼鞋1015303110 - 44252214755 (0) (0)
2016-01-25 天貓購物商城自發熱纖維緊身塑身無縫低胸超薄款秋衣秋褲保暖內衣女士V領套裝 - 41296426015 (0) (0)
2016-01-25 天貓購物商城特38阿卡冬裝新款百搭打底防走光掛脖彈力抽帶抹胸裹胸6色A03305 - 7117574510 (0) (0)
2016-01-25 天貓購物商城日本原裝Arau親皙嬰幼兒童奶瓶餐具泡沫清潔液純天然無添加洗潔精 - 38421368034 (0) (0)
2016-01-25 天貓購物商城davebella戴維貝拉男童夏裝新款寶寶卡通速幹沙灘泳褲DBXJ - 45157163819 (0) (0)
2016-01-24 天貓購物商城包郵正版百變魔尺24段36段48段72段120段240簡裝百變魔王益智玩具 - 520680685488 (1) (0)
2016-01-24 天貓購物商城goodbaby好孩子嬰兒床 實木無漆寶寶床多功能BB兒童床松木搖籃床 - 20627256500 (4) (0)
2016-01-24 天貓購物商城孕婦背帶褲2016孕婦裝春裝新款韓版時尚大碼托腹褲孕婦褲長褲褲子 - 521091213523 (0) (0)
2016-01-24 天貓購物商城小金蛋兒童涼鞋女童鞋子韓版公主鞋真皮休閑寶寶沙灘鞋2015夏新款 - 44017925426 (0) (0)
2016-01-24 MOMO購物網 【HOGA】輝煌成就機械鑽錶(金x白貝-40mm) (0) (0)
2016-01-23 天貓購物商城17年1月到期 新西蘭原裝 紐瑞滋藻油DHA + 核桃油 孕婦dha70粒裝 - 18610763435 (0) (0)
2016-01-23 天貓購物商城大號木制傯ㄇ蜃佬-禿-美式桌球臺巧克粉家用戶外親子兒童玩具 - 520347492640 (0) (0)
2016-01-23 天貓購物商城Aveeno Baby艾維諾嬰兒保濕燕麥霜潤膚乳寶寶面霜護膚去濕疹227g - 36088441403 (1) (0)
2016-01-23 天貓購物商城成人防水圍嘴 老人防漏吃飯兜食飯兜老年人口水巾圍脖圍兜超大號 - 520188790318 (0) (0)
2016-01-23 天貓購物商城木制玩具 多功能工具臺 兒童螺母組合拼裝玩具 男孩拆裝工具箱 - 520817733315 (0) (0)
2016-01-22 天貓購物商城FILA斐樂正品明星款冬輕薄女款修身毛領保暖羽絨服26443943 - 41790104636 (0) (0)
2016-01-22 天貓購物商城NIKE耐克童鞋Air Max 90 Premium Mesh男小童氣--24883-100 - 45440364691 (0) (0)
2016-01-22 天貓購物商城clorts洛弛秋冬專業登山戶外鞋男女低幫防水防滑耐磨徒步鞋休閑鞋 - 521902738376 (0) (0)
2016-01-22 天貓購物商城CAMEL駱駝戶外眼鏡 運動眼鏡 太陽鏡 騎行眼鏡男女偏光眼鏡 正品 - 37048673098 (0) (0)
2016-01-22 天貓購物商城2015新款男涼鞋真皮沙灘鞋包頭厚底增高戶外休閑鞋頭層牛皮涼鞋男 - 520774838215 (1) (0)
2016-01-21 天貓購物商城babyruler嬰兒推車可坐可躺超輕便攜嬰兒車折疊兒童推車寶寶傘車 - 522590878113 (0) (0)
2016-01-21 天貓購物商城auby澳貝河馬說話機463447奧貝兒童學說話1-3歲嬰兒寶寶益智玩具 - 17514642695 (0) (0)
2016-01-21 天貓購物商城十月天使精純滋養乳液套裝孕婦護膚品孕婦化妝品 - 9215887535 (0) (0)
2016-01-21 天貓購物商城3D立體金屬拼圖龜船板屋船帆船模海盜船拼裝模型拼酷生日禮物男女 - 39987719630 (0) (0)
2016-01-21 MOMO購物網 【MIDO】Commander 香榭系列天文台機械腕錶-銀x玫瑰金框(M0214312203100) (0) (0)
1 23
找更多相關文章與討論